Date String (YYYY-MM-DD hh:mm:ss) UTC,Instrument flags,Ambient pressure (hPa),Sample flow (lpm),Bypass flow (lpm),Sample temperature (°C),Ambient temperature (°C),ASC tube jacket temperature (°C),LED temperature (°C),Box temperature (°C),Sample RH (%),Span deviation,Mass concentration (μg/m³),Mass concentration (μg/m³),Mass concentration (μg/m³)
DateTimeUTC,F1_M11,P_M11,Q1_M11,Q2_M11,T1_M11,T2_M11,T3_M11,T4_M11,T5_M11,U1_M11,ZSPAN_M11,X0_M11,X2_M11,X1_M11
2022-06-20 03:00:00,,0821.8,4.99,0.00,29.1,27.9,00.0,37.9,31.1,29.6,0000.0,0003.38,0002.19,0001.57
2022-06-20 03:01:00,,0821.8,4.99,0.00,29.1,28.0,00.0,37.9,31.1,29.4,0000.0,0003.18,0002.08,0001.53
2022-06-20 03:02:00,,0821.8,5.01,0.00,29.1,28.1,00.0,37.9,31.1,29.2,0000.0,0003.16,0002.05,0001.52
2022-06-20 03:03:00,,0821.9,5.01,0.00,29.2,28.2,00.0,37.9,31.2,29.0,0000.0,0003.99,0002.06,0001.51
2022-06-20 03:04:00,,0822.1,4.99,0.00,29.2,28.3,00.0,38.0,31.2,28.8,0000.0,0006.12,0002.04,0001.48
2022-06-20 03:05:00,,0822.0,5.01,0.00,29.3,28.4,00.0,38.0,31.3,28.6,0000.0,0006.41,0002.01,0001.46
2022-06-20 03:06:00,,0822.1,5.00,0.00,29.3,28.5,00.0,38.0,31.3,28.4,0000.0,0006.43,0002.01,0001.45
2022-06-20 03:07:00,,0821.8,4.99,0.00,29.3,28.5,00.0,38.0,31.3,28.1,0000.0,0006.23,0001.94,0001.43
2022-06-20 03:08:00,,0821.8,5.00,0.00,29.3,28.0,00.0,38.0,31.3,27.8,0000.0,0006.06,0001.89,0001.41
2022-06-20 03:09:00,,0822.1,5.01,0.00,29.3,27.5,00.0,38.0,31.1,27.8,0000.0,0006.01,0001.84,0001.40
2022-06-20 03:10:00,,0822.0,5.01,0.00,29.2,27.3,00.0,38.0,31.0,27.6,0000.0,0006.27,0001.84,0001.39
2022-06-20 03:11:00,,0821.9,5.00,0.00,29.2,27.4,00.0,38.0,31.0,27.7,0000.0,0006.74,0001.85,0001.37
2022-06-20 03:12:00,,0822.1,4.99,0.00,29.2,27.5,00.0,38.0,31.0,27.9,0000.0,0006.82,0001.84,0001.35
2022-06-20 03:13:00,,0822.0,5.00,0.00,29.2,27.6,00.0,38.0,31.1,28.1,0000.0,0007.01,0001.81,0001.34
2022-06-20 03:14:00,,0822.2,4.99,0.00,29.2,27.8,00.0,38.0,31.1,27.9,0000.0,0006.35,0001.78,0001.33
2022-06-20 03:15:00,,0822.1,5.00,0.00,29.2,27.9,00.0,38.0,31.2,27.6,0000.0,0004.41,0001.77,0001.33
2022-06-20 03:16:00,,0821.9,5.01,0.00,29.2,28.1,00.0,38.0,31.2,27.3,0000.0,0003.97,0001.82,0001.33
2022-06-20 03:17:00,,0821.8,5.01,0.00,29.3,28.2,00.0,38.0,31.2,26.9,0000.0,0004.04,0001.84,0001.32
2022-06-20 03:18:00,,0821.8,4.99,0.00,29.3,28.3,00.0,38.0,31.3,26.7,0000.0,0004.95,0001.86,0001.33
2022-06-20 03:19:00,,0821.9,5.00,0.00,29.3,28.4,00.0,38.1,31.3,26.5,0000.0,0004.84,0001.82,0001.32
2022-06-20 03:20:00,,0821.8,5.01,0.00,29.4,28.5,00.0,38.1,31.4,26.3,0000.0,0004.84,0001.83,0001.31
2022-06-20 03:21:00,,0822.0,5.01,0.00,29.4,28.5,00.0,38.1,31.4,26.1,0000.0,0004.51,0001.80,0001.31
2022-06-20 03:22:00,,0821.9,5.00,0.00,29.4,27.8,00.0,38.0,31.2,26.1,0000.0,0004.00,0001.76,0001.31
2022-06-20 03:23:00,,0822.1,4.99,0.00,29.3,26.9,00.0,38.0,31.0,26.3,0000.0,0003.98,0001.79,0001.32
2022-06-20 03:24:00,,0822.1,5.00,0.00,29.2,26.7,00.0,37.9,30.9,26.6,0000.0,0003.74,0001.79,0001.31
2022-06-20 03:25:00,,0822.1,5.01,0.00,29.1,26.7,00.0,37.9,30.8,26.7,0000.0,0003.71,0001.77,0001.30
2022-06-20 03:26:00,,0822.1,4.99,0.00,29.1,26.8,00.0,37.9,30.9,26.7,0000.0,0003.55,0001.75,0001.30
2022-06-20 03:27:00,,0822.1,5.00,0.00,29.1,27.0,00.0,37.9,30.9,26.6,0000.0,0003.56,0001.72,0001.30
2022-06-20 03:28:00,,0822.1,5.00,0.00,29.1,27.2,00.0,37.9,30.9,26.5,0000.0,0003.40,0001.68,0001.29
2022-06-20 03:29:00,,0822.2,5.00,0.00,29.1,27.4,00.0,37.9,31.0,26.2,0000.0,0002.58,0001.67,0001.28
2022-06-20 03:30:00,,0822.2,5.00,0.00,29.1,27.6,00.0,37.9,31.0,25.9,0000.0,0002.59,0001.66,0001.27
2022-06-20 03:31:00,,0822.2,5.01,0.00,29.1,27.7,00.0,37.9,31.0,25.7,0000.0,0003.17,0001.66,0001.28
2022-06-20 03:32:00,,0822.2,5.00,0.00,29.1,27.9,00.0,37.9,31.1,25.6,0000.0,0003.73,0001.64,0001.29
2022-06-20 03:33:00,,0822.2,5.00,0.00,29.1,28.0,00.0,37.9,31.1,25.5,0000.0,0003.66,0001.60,0001.28
2022-06-20 03:34:00,,0822.2,5.00,0.00,29.2,28.1,00.0,38.0,31.1,25.4,0000.0,0003.60,0001.57,0001.26
2022-06-20 03:35:00,,0822.2,5.00,0.00,29.2,28.2,00.0,38.0,31.2,25.1,0000.0,0003.64,0001.57,0001.25
2022-06-20 03:36:00,,0822.2,5.00,0.00,29.2,28.3,00.0,38.0,31.2,24.9,0000.0,0003.68,0001.58,0001.25
2022-06-20 03:37:00,,0822.2,5.00,0.00,29.3,28.4,00.0,38.0,31.3,24.6,0000.0,0003.69,0001.60,0001.25
2022-06-20 03:38:00,,0822.3,5.00,0.00,29.3,28.4,00.0,38.0,31.3,24.5,0000.0,0003.61,0001.62,0001.26
2022-06-20 03:39:00,,0822.3,5.01,0.00,29.3,28.5,00.0,38.1,31.4,24.5,0000.0,0003.70,0001.65,0001.27
2022-06-20 03:40:00,,0822.3,4.99,0.00,29.4,28.5,00.0,38.1,31.4,24.4,0000.0,0003.76,0001.67,0001.27
2022-06-20 03:41:00,,0822.2,4.99,0.00,29.4,28.0,00.0,38.0,31.3,24.4,0000.0,0003.88,0001.70,0001.27
2022-06-20 03:42:00,,0822.2,5.01,0.00,29.3,27.4,00.0,38.0,31.1,24.4,0000.0,0003.53,0001.69,0001.27
2022-06-20 03:43:00,,0822.2,4.99,0.00,29.3,27.3,00.0,38.0,31.0,24.3,0000.0,0002.74,0001.71,0001.27
2022-06-20 03:44:00,,0822.2,5.00,0.00,29.2,27.3,00.0,38.0,31.0,24.1,0000.0,0002.83,0001.76,0001.28
2022-06-20 03:45:00,,0822.2,5.00,0.00,29.2,27.4,00.0,38.0,31.0,24.3,0000.0,0002.85,0001.78,0001.29
2022-06-20 03:46:00,,0822.2,4.99,0.00,29.2,27.6,00.0,38.0,31.1,24.3,0000.0,0002.86,0001.80,0001.32
2022-06-20 03:47:00,,0822.2,5.00,0.00,29.2,27.7,00.0,38.0,31.1,24.4,0000.0,0002.88,0001.79,0001.33
2022-06-20 03:48:00,,0822.3,5.00,0.00,29.2,27.8,00.0,38.0,31.1,24.6,0000.0,0002.80,0001.76,0001.33
2022-06-20 03:49:00,,0822.3,5.01,0.00,29.2,28.0,00.0,38.0,31.2,24.7,0000.0,0002.70,0001.72,0001.32
2022-06-20 03:50:00,,0822.3,5.01,0.00,29.3,28.1,00.0,38.0,31.2,24.8,0000.0,0002.59,0001.70,0001.34
2022-06-20 03:51:00,,0822.3,5.00,0.00,29.3,28.2,00.0,38.1,31.3,24.9,0000.0,0002.58,0001.70,0001.35
2022-06-20 03:52:00,,0822.4,5.01,0.00,29.3,28.3,00.0,38.1,31.3,24.9,0000.0,0002.58,0001.71,0001.37
2022-06-20 03:53:00,,0822.4,4.99,0.00,29.3,28.4,00.0,38.1,31.3,24.9,0000.0,0002.63,0001.75,0001.38
2022-06-20 03:54:00,,0822.4,4.99,0.00,29.4,28.5,00.0,38.1,31.4,24.8,0000.0,0002.61,0001.73,0001.38
2022-06-20 03:55:00,,0822.4,5.00,0.00,29.4,28.5,00.0,38.1,31.4,24.8,0000.0,0002.54,0001.71,0001.38
2022-06-20 03:56:00,,0822.3,5.00,0.00,29.4,28.6,00.0,38.2,31.4,24.7,0000.0,0002.63,0001.74,0001.39
2022-06-20 03:57:00,,0822.3,5.01,0.00,29.4,28.1,00.0,38.1,31.3,24.7,0000.0,0003.43,0001.75,0001.40
2022-06-20 03:58:00,,0822.3,5.00,0.00,29.4,27.4,00.0,38.1,31.2,24.7,0000.0,0003.67,0001.74,0001.39
2022-06-20 03:59:00,,0822.3,4.99,0.00,29.3,27.3,00.0,38.0,31.1,24.8,0000.0,0003.79,0001.79,0001.40
